Indianapolis, IN

10:15 PM EST on November 16, 2019 (GMT -0500)
Indianapolis International

Weather History for KIND - May, 2019

Change the Weather History Date:

Monday, May 27, 2019

  Actual Average Record
Temperature  
Mean Temperature 73 °F 66 °F  
Max Temperature 82 °F 76 °F 94 °F (1911)
Min Temperature 63 °F 56 °F 31 °F (1961)
Degree Days  
Heating Degree Days 0 3  
Month to date heating degree days 125 133  
Since 1 July heating degree days 5376 5355  
Cooling Degree Days 8 4  
Month to date cooling degree days 77 53  
Year to date cooling degree days 78 68  
Growing Degree Days 23 (Base 50)    
Moisture  
Dew Point 66 °F    
Average Humidity 78    
Maximum Humidity 93    
Minimum Humidity 62    
Precipitation  
Precipitation T in 0.15 in 1.62 in (2000)
Month to date precipitation 3.85 4.42  
Year to date precipitation 21.33 16.77  
Snow  
Snow 0.00 in 0.00 in T in (2001)
Month to date snowfall 0.0 0.0  
Since 1 July snowfall 19.4 25.9  
Snow Depth 0.00 in    
Sea Level Pressure  
Sea Level Pressure 29.92 in    
Wind  
Wind Speed 9 mph (SE)    
Max Wind Speed 23 mph    
Max Gust Speed 32 mph    
Visibility 10 miles    
Events Thunderstorm    
T = Trace of Precipitation, MM = Missing Value Source: NWS Daily Summary

Daily Weather History Graph

Daily Weather History Graph

Search for Another Location

Airport or City:

Astronomy

May. 27, 2019 Rise Set
Actual Time 6:21 AM EDT 9:03 PM EDT
Civil Twilight 5:50 AM EDT 9:34 PM EDT
Nautical Twilight 5:10 AM EDT 10:14 PM EDT
Astronomical Twilight 4:26 AM EDT 10:59 PM EDT
Moon 3:04 AM EDT (5/27) 2:16 PM EDT (5/27)
Length of Visible Light 15h 44m
Length of Day
14h 41m
Last Quarter, 41% of the Moon is Illuminated
May 27
Last Quarter
Jun 3
New
Jun 10
First Quarter
Jun 17
Full
Jun 25
Last Quarter

Hourly Weather History & Observations

Time (EDT) Temp. Heat Index Dew Point Humidity Pressure Visibility Wind Dir Wind Speed Gust Speed Precip Events Conditions
12:54 AM 68.0 °F - 62.1 °F 81% 30.04 in 10.0 mi NNE 3.5 mph - N/A   Scattered Clouds
1:54 AM 68.0 °F - 62.1 °F 81% 30.04 in 10.0 mi NNE 3.5 mph - N/A   Mostly Cloudy
2:54 AM 66.0 °F - 62.1 °F 87% 30.04 in 10.0 mi NNE 4.6 mph - N/A   Mostly Cloudy
3:54 AM 64.9 °F - 61.0 °F 87% 30.02 in 10.0 mi NNE 5.8 mph - N/A   Scattered Clouds
4:54 AM 64.9 °F - 62.1 °F 90% 30.02 in 10.0 mi NE 5.8 mph - N/A   Mostly Cloudy
5:54 AM 64.0 °F - 61.0 °F 90% 30.04 in 10.0 mi NE 4.6 mph - N/A   Mostly Cloudy
6:54 AM 64.0 °F - 61.0 °F 90% 30.03 in 10.0 mi ENE 4.6 mph - N/A   Scattered Clouds
7:54 AM 66.0 °F - 62.1 °F 87% 30.05 in 10.0 mi ESE 5.8 mph - N/A   Scattered Clouds
8:54 AM 69.1 °F - 62.1 °F 78% 30.04 in 9.0 mi East 8.1 mph - N/A   Mostly Cloudy
9:54 AM 72.0 °F - 63.0 °F 73% 30.04 in 10.0 mi ESE 5.8 mph - N/A   Scattered Clouds
10:54 AM 73.9 °F - 64.0 °F 71% 30.00 in 10.0 mi SE 9.2 mph - N/A   Partly Cloudy
11:54 AM 77.0 °F - 64.9 °F 66% 29.99 in 10.0 mi South 10.4 mph 19.6 mph N/A   Scattered Clouds
12:54 PM 79.0 °F - 66.0 °F 64% 29.97 in 10.0 mi SSE 10.4 mph - N/A   Mostly Cloudy
1:54 PM 81.0 °F 83.3 °F 66.9 °F 62% 29.94 in 10.0 mi South 11.5 mph - N/A   Mostly Cloudy
2:48 PM 78.8 °F - 66.2 °F 65% 29.92 in 10.0 mi South 13.8 mph - 0.00 in Thunderstorm Thunderstorm
2:54 PM 79.0 °F - 66.9 °F 66% 29.90 in 10.0 mi South 12.7 mph - 0.00 in Thunderstorm Thunderstorm
3:37 PM 78.1 °F - 70.0 °F 76% 29.91 in 10.0 mi SSE 13.8 mph - 0.00 in   Mostly Cloudy
3:54 PM 79.0 °F - 70.0 °F 74% 29.88 in 10.0 mi South 12.7 mph 20.7 mph 0.00 in   Mostly Cloudy
4:54 PM 79.0 °F - 72.0 °F 79% 29.83 in 10.0 mi SSE 12.7 mph - N/A   Mostly Cloudy
5:54 PM 81.0 °F 84.9 °F 71.1 °F 72% 29.81 in 10.0 mi South 13.8 mph - N/A   Mostly Cloudy
6:54 PM 81.0 °F 84.4 °F 70.0 °F 69% 29.78 in 10.0 mi South 15.0 mph - N/A   Mostly Cloudy
7:54 PM 81.0 °F 83.3 °F 66.9 °F 62% 29.75 in 10.0 mi SSW 16.1 mph 27.6 mph N/A   Mostly Cloudy
8:54 PM 79.0 °F - 66.9 °F 66% 29.75 in 10.0 mi SW 12.7 mph - N/A   Mostly Cloudy
9:54 PM 77.0 °F - 66.9 °F 71% 29.77 in 10.0 mi SSW 9.2 mph - N/A   Mostly Cloudy
10:54 PM 75.9 °F - 68.0 °F 76% 29.79 in 10.0 mi SSW 5.8 mph - N/A   Mostly Cloudy
11:54 PM 75.9 °F - 68.0 °F 76% 29.78 in 10.0 mi South 5.8 mph - N/A   Overcast